Temp: 7.4°C   Baro: 1005.2mb
  Wind: 4.0mph   Dir: SW (224°)
  Rain: 5.6mm (0.0mm/hr)
  Solar: 0W/m2  Hum: 95%
 
Bath Spa Weather Historical Data
Daily Summary for November 5, 2019 Units:  Metric    English   Both
Next Day »
Daily Weekly Monthly Yearly Custom
  High: Low: Average:
Temperature: 12.1 °C 8.6 °C 9.9 °C
Dew Point: 9.7 °C 6.8 °C 8 °C
Humidity: 92% 85% 88%
Wind Speed: 20.9km/h 0.0km/h 7km/h
Wind Gust: 24.1km/h - -
Wind direction- - South
Pressure: 1007.0 hPa 988.4 hPa -
Precipitation: 0.0 mm    
Historical Graphs
 
 
Tabular Data for November 5, 2019
Time Temperature Dew Point Pressure Wind direction Wind Speed Wind Gust Humidity Rainfall Rate (Hourly) solar
00:00 9.3 °C 8.1 °C 988.4 hPa NNE 3.2 km/h 11.3 km/h 92% 0.0 mm 0.00 W/m2
00:05 9.4 °C 8.2 °C 988.4 hPa NE 7.9 km/h 8.0 km/h 92% 0.0 mm 0.00 W/m2
00:10 9.3 °C 7.9 °C 988.4 hPa Calm   11.3 km/h 91% 0.0 mm 0.00 W/m2
00:15 9.4 °C 8.0 °C 988.7 hPa North 7.9 km/h 17.7 km/h 91% 0.0 mm 0.00 W/m2
00:20 9.4 °C 8.0 °C 988.7 hPa North 16.3 km/h 17.7 km/h 91% 0.0 mm 0.00 W/m2
00:25 9.4 °C 8.0 °C 988.7 hPa NE 4.7 km/h 9.7 km/h 91% 0.0 mm 0.00 W/m2
00:30 9.5 °C 8.1 °C 988.7 hPa NE 3.2 km/h 16.1 km/h 91% 0.0 mm 0.00 W/m2
00:35 9.6 °C 8.2 °C 988.7 hPa NE 3.2 km/h 9.7 km/h 91% 0.0 mm 0.00 W/m2
00:40 9.6 °C 8.2 °C 989.1 hPa North 11.1 km/h 20.9 km/h 91% 0.0 mm 0.00 W/m2
00:45 9.7 °C 8.3 °C 989.1 hPa ENE 3.2 km/h 12.9 km/h 91% 0.0 mm 0.00 W/m2
00:50 9.7 °C 8.3 °C 989.1 hPa North 3.2 km/h 12.9 km/h 91% 0.0 mm 0.00 W/m2
00:55 9.8 °C 8.4 °C 989.1 hPa NNE 9.7 km/h 9.7 km/h 91% 0.0 mm 0.00 W/m2
01:00 9.7 °C 8.3 °C 989.1 hPa NE 13.0 km/h 14.5 km/h 91% 0.0 mm 0.00 W/m2
01:05 9.8 °C 8.4 °C 989.1 hPa NNE 1.4 km/h 8.0 km/h 91% 0.0 mm 0.00 W/m2
01:10 9.8 °C 8.2 °C 989.1 hPa NNE 11.1 km/h 11.3 km/h 90% 0.0 mm 0.00 W/m2
01:15 9.7 °C 8.1 °C 989.4 hPa NNE 7.9 km/h 9.7 km/h 90% 0.0 mm 0.00 W/m2
01:20 9.7 °C 8.1 °C 989.4 hPa NE 9.7 km/h 12.9 km/h 90% 0.0 mm 0.00 W/m2
01:25 9.7 °C 8.1 °C 989.7 hPa NNE 4.7 km/h 14.5 km/h 90% 0.0 mm 0.00 W/m2
01:30 9.7 °C 8.1 °C 989.7 hPa North 9.7 km/h 19.3 km/h 90% 0.0 mm 0.00 W/m2
01:35 9.7 °C 8.0 °C 989.7 hPa NNE 9.7 km/h 16.1 km/h 89% 0.0 mm 0.00 W/m2
01:40 9.6 °C 7.9 °C 989.7 hPa NNE 1.4 km/h 6.4 km/h 89% 0.0 mm 0.00 W/m2
01:45 9.6 °C 7.9 °C 989.7 hPa NE 11.1 km/h 14.5 km/h 89% 0.0 mm 0.00 W/m2
01:50 9.6 °C 7.9 °C 989.7 hPa North 6.4 km/h 11.3 km/h 89% 0.0 mm 0.00 W/m2
01:55 9.5 °C 7.6 °C 989.7 hPa NNE 13.0 km/h 16.1 km/h 88% 0.0 mm 0.00 W/m2
02:00 9.4 °C 7.5 °C 990.1 hPa NNE 1.4 km/h 14.5 km/h 88% 0.0 mm 0.00 W/m2
02:05 9.4 °C 7.5 °C 990.1 hPa Calm   4.8 km/h 88% 0.0 mm 0.00 W/m2
02:10 9.3 °C 7.4 °C 990.1 hPa NE 6.4 km/h 8.0 km/h 88% 0.0 mm 0.00 W/m2
02:15 9.3 °C 7.4 °C 990.1 hPa NNE 7.9 km/h 12.9 km/h 88% 0.0 mm 0.00 W/m2
02:20 9.3 °C 7.4 °C 990.4 hPa North 7.9 km/h 12.9 km/h 88% 0.0 mm 0.00 W/m2
02:25 9.2 °C 7.3 °C 990.4 hPa North 4.7 km/h 12.9 km/h 88% 0.0 mm 0.00 W/m2
02:30 9.2 °C 7.3 °C 990.4 hPa NE 11.1 km/h 24.1 km/h 88% 0.0 mm 0.00 W/m2
02:35 9.2 °C 7.3 °C 990.7 hPa NNE 16.3 km/h 16.1 km/h 88% 0.0 mm 0.00 W/m2
02:40 9.2 °C 7.3 °C 990.7 hPa NE 9.7 km/h 14.5 km/h 88% 0.0 mm 0.00 W/m2
02:45 9.1 °C 7.2 °C 990.7 hPa North 3.2 km/h 19.3 km/h 88% 0.0 mm 0.00 W/m2
02:50 9.1 °C 7.2 °C 990.7 hPa NE 7.9 km/h 11.3 km/h 88% 0.0 mm 0.00 W/m2
02:55 9.1 °C 7.2 °C 990.7 hPa NE 6.4 km/h 6.4 km/h 88% 0.0 mm 0.00 W/m2
03:00 9.0 °C 7.1 °C 991.1 hPa NNW 3.2 km/h 14.5 km/h 88% 0.0 mm 0.00 W/m2
03:05 8.9 °C 7.0 °C 991.1 hPa NNE 3.2 km/h 12.9 km/h 88% 0.0 mm 0.00 W/m2
03:10 8.9 °C 7.0 °C 991.1 hPa North 4.7 km/h 20.9 km/h 88% 0.0 mm 0.00 W/m2
03:15 8.9 °C 7.0 °C 991.1 hPa ENE 7.9 km/h 12.9 km/h 88% 0.0 mm 0.00 W/m2
03:20 8.9 °C 7.0 °C 991.1 hPa NNE 6.4 km/h 17.7 km/h 88% 0.0 mm 0.00 W/m2
03:25 8.9 °C 7.0 °C 991.4 hPa NNE 9.7 km/h 17.7 km/h 88% 0.0 mm 0.00 W/m2
03:30 8.9 °C 7.0 °C 991.4 hPa North 4.7 km/h 19.3 km/h 88% 0.0 mm 0.00 W/m2
03:35 8.9 °C 7.0 °C 991.4 hPa NE 9.7 km/h 16.1 km/h 88% 0.0 mm 0.00 W/m2
03:40 8.9 °C 7.0 °C 991.4 hPa NE 7.9 km/h 22.5 km/h 88% 0.0 mm 0.00 W/m2
03:45 8.9 °C 7.0 °C 991.4 hPa NNE 4.7 km/h 22.5 km/h 88% 0.0 mm 0.00 W/m2
03:50 8.9 °C 7.0 °C 991.4 hPa NNE 6.4 km/h 14.5 km/h 88% 0.0 mm 0.00 W/m2
03:55 8.8 °C 6.9 °C 991.8 hPa NNE 6.4 km/h 12.9 km/h 88% 0.0 mm 0.00 W/m2
04:00 8.8 °C 6.9 °C 991.8 hPa NNW 9.7 km/h 16.1 km/h 88% 0.0 mm 0.00 W/m2
04:05 8.8 °C 7.1 °C 991.8 hPa North 4.7 km/h 19.3 km/h 89% 0.0 mm 0.00 W/m2
04:10 8.7 °C 7.0 °C 992.1 hPa NNE 7.9 km/h 14.5 km/h 89% 0.0 mm 0.00 W/m2
04:15 8.7 °C 7.0 °C 992.1 hPa NNW 7.9 km/h 9.7 km/h 89% 0.0 mm 0.00 W/m2
04:20 8.6 °C 6.9 °C 992.1 hPa NNE 7.9 km/h 9.7 km/h 89% 0.0 mm 0.00 W/m2
04:25 8.6 °C 6.9 °C 992.4 hPa North 7.9 km/h 12.9 km/h 89% 0.0 mm 0.00 W/m2
04:30 8.6 °C 6.9 °C 992.4 hPa North 7.9 km/h 12.9 km/h 89% 0.0 mm 0.00 W/m2
04:35 8.7 °C 7.0 °C 992.4 hPa NNE 1.4 km/h 9.7 km/h 89% 0.0 mm 0.00 W/m2
04:40 8.7 °C 7.2 °C 992.8 hPa NNW 3.2 km/h 9.7 km/h 90% 0.0 mm 0.00 W/m2
04:45 8.7 °C 7.0 °C 992.8 hPa North 4.7 km/h 9.7 km/h 89% 0.0 mm 0.00 W/m2
04:50 8.7 °C 7.2 °C 992.8 hPa NNE 6.4 km/h 14.5 km/h 90% 0.0 mm 0.00 W/m2
04:55 8.7 °C 7.2 °C 992.8 hPa North 11.1 km/h 14.5 km/h 90% 0.0 mm 0.00 W/m2
05:00 8.8 °C 7.2 °C 993.1 hPa NNE 4.7 km/h 17.7 km/h 90% 0.0 mm 0.00 W/m2
05:05 8.8 °C 7.2 °C 993.1 hPa North 3.2 km/h 14.5 km/h 90% 0.0 mm 0.00 W/m2
05:10 8.8 °C 7.2 °C 993.1 hPa NNW 6.4 km/h 8.0 km/h 90% 0.0 mm 0.00 W/m2
05:15 8.8 °C 7.2 °C 993.1 hPa NNW 4.7 km/h 12.9 km/h 90% 0.0 mm 0.00 W/m2
05:20 8.8 °C 7.2 °C 993.5 hPa NNW 3.2 km/h 9.7 km/h 90% 0.0 mm 0.00 W/m2
05:25 8.8 °C 7.2 °C 993.5 hPa North 11.1 km/h 16.1 km/h 90% 0.0 mm 0.00 W/m2
05:30 8.8 °C 7.2 °C 993.5 hPa NW 3.2 km/h 14.5 km/h 90% 0.0 mm 0.00 W/m2
05:35 8.8 °C 7.2 °C 993.8 hPa NE 11.1 km/h 14.5 km/h 90% 0.0 mm 0.00 W/m2
05:40 8.8 °C 7.2 °C 993.8 hPa NW 1.4 km/h 9.7 km/h 90% 0.0 mm 0.00 W/m2
05:45 8.8 °C 7.2 °C 993.8 hPa Calm   8.0 km/h 90% 0.0 mm 0.00 W/m2
05:50 8.8 °C 7.2 °C 993.8 hPa NNE 6.4 km/h 14.5 km/h 90% 0.0 mm 0.00 W/m2
05:55 8.8 °C 7.2 °C 994.1 hPa NNE 6.4 km/h 12.9 km/h 90% 0.0 mm 0.00 W/m2
06:00 8.7 °C 7.2 °C 994.1 hPa NNW 13.0 km/h 14.5 km/h 90% 0.0 mm 0.00 W/m2
06:05 8.8 °C 7.2 °C 994.1 hPa NNW 3.2 km/h 9.7 km/h 90% 0.0 mm 0.00 W/m2
06:10 8.8 °C 7.2 °C 994.1 hPa NNW 1.4 km/h 3.2 km/h 90% 0.0 mm 0.00 W/m2
06:15 8.8 °C 7.2 °C 994.5 hPa NNW 3.2 km/h 9.7 km/h 90% 0.0 mm 0.00 W/m2
06:20 8.8 °C 7.2 °C 994.5 hPa NNW 4.7 km/h 6.4 km/h 90% 0.0 mm 0.00 W/m2
06:25 8.8 °C 7.2 °C 994.5 hPa North 3.2 km/h 12.9 km/h 90% 0.0 mm 0.00 W/m2
06:30 8.9 °C 7.3 °C 994.5 hPa NNW 11.1 km/h 11.3 km/h 90% 0.0 mm 0.00 W/m2
06:35 8.9 °C 7.3 °C 994.8 hPa NNW 4.7 km/h 9.7 km/h 90% 0.0 mm 0.00 W/m2
06:40 8.9 °C 7.3 °C 994.8 hPa NW 4.7 km/h 12.9 km/h 90% 0.0 mm 0.00 W/m2
06:45 8.9 °C 7.3 °C 995.1 hPa NW 11.1 km/h 11.3 km/h 90% 0.0 mm 0.00 W/m2
06:50 9.0 °C 7.4 °C 995.1 hPa North 4.7 km/h 9.7 km/h 90% 0.0 mm 0.00 W/m2
06:55 8.9 °C 7.3 °C 995.1 hPa NNE 11.1 km/h 12.9 km/h 90% 0.0 mm 0.00 W/m2
07:00 9.0 °C 7.4 °C 995.1 hPa North 3.2 km/h 11.3 km/h 90% 0.0 mm 0.00 W/m2
07:05 9.1 °C 7.5 °C 995.1 hPa North 7.9 km/h 16.1 km/h 90% 0.0 mm 0.00 W/m2
07:10 9.1 °C 7.5 °C 995.1 hPa North 9.7 km/h 9.7 km/h 90% 0.0 mm 0.00 W/m2
07:15 9.1 °C 7.5 °C 995.5 hPa North 4.7 km/h 9.7 km/h 90% 0.0 mm 0.00 W/m2
07:20 9.1 °C 7.5 °C 995.5 hPa North 4.7 km/h 11.3 km/h 90% 0.0 mm 0.00 W/m2
07:25 9.2 °C 7.6 °C 995.8 hPa NNW 1.4 km/h 9.7 km/h 90% 0.0 mm 0.00 W/m2
07:30 9.2 °C 7.6 °C 995.8 hPa NW 1.4 km/h 9.7 km/h 90% 0.0 mm 7.00 W/m2
07:35 9.2 °C 7.6 °C 995.8 hPa North 4.7 km/h 8.0 km/h 90% 0.0 mm 9.00 W/m2
07:40 9.2 °C 7.6 °C 995.8 hPa North 1.4 km/h 9.7 km/h 90% 0.0 mm 11.00 W/m2
07:45 9.2 °C 7.6 °C 996.2 hPa NW 3.2 km/h 14.5 km/h 90% 0.0 mm 12.00 W/m2
07:50 9.3 °C 7.7 °C 996.2 hPa NW 3.2 km/h 9.7 km/h 90% 0.0 mm 16.00 W/m2
07:55 9.4 °C 7.8 °C 996.2 hPa NNW 4.7 km/h 11.3 km/h 90% 0.0 mm 19.00 W/m2
08:00 9.4 °C 7.8 °C 996.2 hPa NNW 7.9 km/h 8.0 km/h 90% 0.0 mm 26.00 W/m2
08:05 9.4 °C 7.8 °C 996.5 hPa NNE 13.0 km/h 12.9 km/h 90% 0.0 mm 28.00 W/m2
08:10 9.4 °C 7.8 °C 996.5 hPa WNW 6.4 km/h 12.9 km/h 90% 0.0 mm 32.00 W/m2
08:15 9.5 °C 7.9 °C 996.5 hPa NW 9.7 km/h 14.5 km/h 90% 0.0 mm 39.00 W/m2
08:20 9.6 °C 8.0 °C 996.8 hPa North 9.7 km/h 20.9 km/h 90% 0.0 mm 39.00 W/m2
08:25 9.6 °C 8.0 °C 996.8 hPa North 3.2 km/h 8.0 km/h 90% 0.0 mm 28.00 W/m2
08:30 9.7 °C 8.1 °C 996.8 hPa North 9.7 km/h 14.5 km/h 90% 0.0 mm 42.00 W/m2
08:35 9.7 °C 8.1 °C 996.8 hPa NNW 7.9 km/h 12.9 km/h 90% 0.0 mm 26.00 W/m2
08:40 9.7 °C 8.1 °C 996.8 hPa North 7.9 km/h 14.5 km/h 90% 0.0 mm 72.00 W/m2
08:45 9.8 °C 8.1 °C 997.2 hPa NNW 6.4 km/h 9.7 km/h 89% 0.0 mm 98.00 W/m2
08:50 9.8 °C 8.1 °C 997.2 hPa WNW 6.4 km/h 12.9 km/h 89% 0.0 mm 113.00 W/m2
08:55 9.9 °C 8.3 °C 997.2 hPa North 4.7 km/h 12.9 km/h 90% 0.0 mm 120.00 W/m2
09:00 9.9 °C 8.2 °C 997.2 hPa NNW 4.7 km/h 14.5 km/h 89% 0.0 mm 90.00 W/m2
09:05 9.9 °C 8.2 °C 997.2 hPa North 6.4 km/h 20.9 km/h 89% 0.0 mm 107.00 W/m2
09:10 9.8 °C 8.1 °C 997.2 hPa NW 6.4 km/h 16.1 km/h 89% 0.0 mm 77.00 W/m2
09:15 9.9 °C 8.2 °C 997.2 hPa NNW 6.4 km/h 12.9 km/h 89% 0.0 mm 121.00 W/m2
09:20 9.9 °C 8.2 °C 997.5 hPa NNW 7.9 km/h 12.9 km/h 89% 0.0 mm 98.00 W/m2
09:25 9.9 °C 8.2 °C 997.5 hPa North 9.7 km/h 14.5 km/h 89% 0.0 mm 97.00 W/m2
09:30 9.9 °C 8.2 °C 997.5 hPa NNE 14.3 km/h 16.1 km/h 89% 0.0 mm 132.00 W/m2
09:35 10.0 °C 8.3 °C 997.9 hPa North 9.7 km/h 16.1 km/h 89% 0.0 mm 179.00 W/m2
09:40 10.2 °C 8.5 °C 997.9 hPa North 16.3 km/h 20.9 km/h 89% 0.0 mm 172.00 W/m2
09:45 10.3 °C 8.6 °C 997.9 hPa NNE 14.3 km/h 17.7 km/h 89% 0.0 mm 149.00 W/m2
09:50 10.3 °C 8.4 °C 997.9 hPa NNE 11.1 km/h 20.9 km/h 88% 0.0 mm 125.00 W/m2
09:55 10.3 °C 8.4 °C 997.9 hPa North 1.4 km/h 12.9 km/h 88% 0.0 mm 104.00 W/m2
10:00 10.3 °C 8.2 °C 997.9 hPa NNE 4.7 km/h 19.3 km/h 87% 0.0 mm 102.00 W/m2
10:05 10.3 °C 8.2 °C 998.2 hPa NNW 13.0 km/h 17.7 km/h 87% 0.0 mm 130.00 W/m2
10:10 10.3 °C 8.2 °C 998.2 hPa North 3.2 km/h 8.0 km/h 87% 0.0 mm 125.00 W/m2
10:15 10.3 °C 8.2 °C 998.2 hPa North 6.4 km/h 17.7 km/h 87% 0.0 mm 155.00 W/m2
10:20 10.4 °C 8.3 °C 998.2 hPa NNW 7.9 km/h 14.5 km/h 87% 0.0 mm 179.00 W/m2
10:25 10.6 °C 8.5 °C 998.5 hPa North 4.7 km/h 14.5 km/h 87% 0.0 mm 172.00 W/m2
10:30 10.6 °C 8.4 °C 998.5 hPa WNW 11.1 km/h 12.9 km/h 86% 0.0 mm 127.00 W/m2
10:35 10.6 °C 8.4 °C 998.5 hPa North 9.7 km/h 12.9 km/h 86% 0.0 mm 72.00 W/m2
10:40 10.7 °C 8.5 °C 998.5 hPa NNW 3.2 km/h 12.9 km/h 86% 0.0 mm 121.00 W/m2
10:45 10.7 °C 8.5 °C 998.5 hPa North 3.2 km/h 16.1 km/h 86% 0.0 mm 127.00 W/m2
10:50 10.7 °C 8.5 °C 998.9 hPa North 11.1 km/h 11.3 km/h 86% 0.0 mm 137.00 W/m2
10:55 10.7 °C 8.5 °C 998.9 hPa NW 11.1 km/h 20.9 km/h 86% 0.0 mm 83.00 W/m2
11:00 10.7 °C 8.5 °C 998.9 hPa NNE 14.3 km/h 17.7 km/h 86% 0.0 mm 69.00 W/m2
11:05 10.6 °C 8.4 °C 998.9 hPa NNE 9.7 km/h 14.5 km/h 86% 0.0 mm 56.00 W/m2
11:10 10.7 °C 8.5 °C 999.2 hPa NNW 4.7 km/h 9.7 km/h 86% 0.0 mm 76.00 W/m2
11:15 10.7 °C 8.5 °C 999.2 hPa NW 6.4 km/h 16.1 km/h 86% 0.0 mm 111.00 W/m2
11:20 10.7 °C 8.5 °C 999.2 hPa NNW 16.3 km/h 16.1 km/h 86% 0.0 mm 127.00 W/m2
11:25 10.8 °C 8.6 °C 999.2 hPa NNW 3.2 km/h 16.1 km/h 86% 0.0 mm 137.00 W/m2
11:30 10.9 °C 8.6 °C 999.2 hPa NNW 6.4 km/h 11.3 km/h 86% 0.0 mm 84.00 W/m2
11:35 10.9 °C 8.6 °C 999.2 hPa NNW 7.9 km/h 16.1 km/h 86% 0.0 mm 84.00 W/m2
11:40 10.9 °C 8.6 °C 999.2 hPa NW 4.7 km/h 11.3 km/h 86% 0.0 mm 102.00 W/m2
11:45 10.9 °C 8.6 °C 999.2 hPa North 13.0 km/h 16.1 km/h 86% 0.0 mm 113.00 W/m2
11:50 11.1 °C 8.8 °C 999.2 hPa North 4.7 km/h 12.9 km/h 86% 0.0 mm 128.00 W/m2
11:55 11.1 °C 8.8 °C 999.2 hPa NW 1.4 km/h 14.5 km/h 86% 0.0 mm 151.00 W/m2
12:00 11.2 °C 8.9 °C 999.2 hPa NNW 6.4 km/h 14.5 km/h 86% 0.0 mm 151.00 W/m2
12:05 11.3 °C 9.0 °C 999.2 hPa North 1.4 km/h 8.0 km/h 86% 0.0 mm 158.00 W/m2
12:10 11.4 °C 9.1 °C 999.2 hPa North 6.4 km/h 16.1 km/h 86% 0.0 mm 178.00 W/m2
12:15 11.5 °C 9.1 °C 999.2 hPa Calm   17.7 km/h 85% 0.0 mm 120.00 W/m2
12:20 11.6 °C 9.2 °C 999.5 hPa North 7.9 km/h 12.9 km/h 85% 0.0 mm 200.00 W/m2
12:25 11.6 °C 9.2 °C 999.5 hPa NNW 3.2 km/h 11.3 km/h 85% 0.0 mm 63.00 W/m2
12:30 11.7 °C 9.3 °C 999.5 hPa NNE 9.7 km/h 16.1 km/h 85% 0.0 mm 51.00 W/m2
12:35 11.6 °C 9.2 °C 999.5 hPa North 6.4 km/h 14.5 km/h 85% 0.0 mm 70.00 W/m2
12:40 11.7 °C 9.3 °C 999.5 hPa NNE 17.7 km/h 17.7 km/h 85% 0.0 mm 84.00 W/m2
12:45 11.6 °C 9.2 °C 999.5 hPa NNW 6.4 km/h 16.1 km/h 85% 0.0 mm 63.00 W/m2
12:50 11.6 °C 9.2 °C 999.9 hPa NNW 7.9 km/h 16.1 km/h 85% 0.0 mm 77.00 W/m2
12:55 11.6 °C 9.2 °C 999.9 hPa NW 1.4 km/h 8.0 km/h 85% 0.0 mm 90.00 W/m2
13:00 11.6 °C 9.2 °C 999.9 hPa North 11.1 km/h 14.5 km/h 85% 0.0 mm 100.00 W/m2
13:05 11.6 °C 9.3 °C 999.9 hPa North 3.2 km/h 11.3 km/h 86% 0.0 mm 90.00 W/m2
13:10 11.5 °C 9.2 °C 999.9 hPa NNW 6.4 km/h 12.9 km/h 86% 0.0 mm 116.00 W/m2
13:15 11.5 °C 9.4 °C 999.9 hPa North 11.1 km/h 11.3 km/h 87% 0.0 mm 123.00 W/m2
13:20 11.6 °C 9.5 °C 1000.2 hPa WNW 14.3 km/h 14.5 km/h 87% 0.0 mm 65.00 W/m2
13:25 11.6 °C 9.5 °C 1000.2 hPa North 9.7 km/h 14.5 km/h 87% 0.0 mm 83.00 W/m2
13:30 11.7 °C 9.4 °C 1000.2 hPa NNW 13.0 km/h 12.9 km/h 86% 0.0 mm 102.00 W/m2
13:35 11.8 °C 9.5 °C 1000.2 hPa WNW 17.7 km/h 17.7 km/h 86% 0.0 mm 109.00 W/m2
13:40 11.8 °C 9.5 °C 1000.2 hPa NNW 14.3 km/h 16.1 km/h 86% 0.0 mm 120.00 W/m2
13:45 11.9 °C 9.6 °C 1000.2 hPa North 16.3 km/h 16.1 km/h 86% 0.0 mm 67.00 W/m2
13:50 11.9 °C 9.6 °C 1000.2 hPa North 7.9 km/h 22.5 km/h 86% 0.0 mm 121.00 W/m2
13:55 11.9 °C 9.5 °C 1000.2 hPa NNE 7.9 km/h 17.7 km/h 85% 0.0 mm 70.00 W/m2
14:00 11.9 °C 9.5 °C 1000.2 hPa NW 7.9 km/h 12.9 km/h 85% 0.0 mm 49.00 W/m2
14:05 11.9 °C 9.5 °C 1000.6 hPa NNW 13.0 km/h 17.7 km/h 85% 0.0 mm 79.00 W/m2
14:10 11.9 °C 9.5 °C 1000.6 hPa NNW 7.9 km/h 16.1 km/h 85% 0.0 mm 76.00 W/m2
14:15 12.0 °C 9.6 °C 1000.9 hPa NNW 6.4 km/h 11.3 km/h 85% 0.0 mm 83.00 W/m2
14:20 12.1 °C 9.7 °C 1000.9 hPa North 6.4 km/h 8.0 km/h 85% 0.0 mm 63.00 W/m2
14:25 12.1 °C 9.7 °C 1000.9 hPa North 4.7 km/h 16.1 km/h 85% 0.0 mm 35.00 W/m2
14:30 12.1 °C 9.7 °C 1001.2 hPa North 9.7 km/h 12.9 km/h 85% 0.0 mm 14.00 W/m2
14:35 12.1 °C 9.7 °C 1001.2 hPa NW 9.7 km/h 12.9 km/h 85% 0.0 mm 12.00 W/m2
14:40 11.9 °C 9.5 °C 1001.2 hPa North 11.1 km/h 16.1 km/h 85% 0.0 mm 23.00 W/m2
14:45 11.8 °C 9.4 °C 1001.2 hPa North 7.9 km/h 17.7 km/h 85% 0.0 mm 14.00 W/m2
14:50 11.7 °C 9.3 °C 1001.6 hPa NNW 6.4 km/h 9.7 km/h 85% 0.0 mm 12.00 W/m2
14:55 11.7 °C 9.3 °C 1001.6 hPa NNW 6.4 km/h 14.5 km/h 85% 0.0 mm 19.00 W/m2
15:00 11.6 °C 9.2 °C 1001.6 hPa North 14.3 km/h 16.1 km/h 85% 0.0 mm 23.00 W/m2
15:05 11.4 °C 9.1 °C 1001.9 hPa NNW 9.7 km/h 17.7 km/h 86% 0.0 mm 21.00 W/m2
15:10 11.3 °C 9.0 °C 1001.9 hPa North 7.9 km/h 8.0 km/h 86% 0.0 mm 25.00 W/m2
15:15 11.3 °C 9.0 °C 1001.9 hPa North 11.1 km/h 16.1 km/h 86% 0.0 mm 23.00 W/m2
15:20 11.3 °C 9.0 °C 1001.9 hPa NNW 1.4 km/h 8.0 km/h 86% 0.0 mm 19.00 W/m2
15:25 11.3 °C 9.0 °C 1002.3 hPa WNW 4.7 km/h 4.8 km/h 86% 0.0 mm 18.00 W/m2
15:30 11.3 °C 9.2 °C 1002.3 hPa NNW 7.9 km/h 8.0 km/h 87% 0.0 mm 12.00 W/m2
15:35 11.2 °C 9.1 °C 1002.3 hPa Calm   4.8 km/h 87% 0.0 mm 19.00 W/m2
15:40 11.1 °C 9.0 °C 1002.3 hPa NNW 7.9 km/h 22.5 km/h 87% 0.0 mm 35.00 W/m2
15:45 11.1 °C 9.0 °C 1002.3 hPa North 20.9 km/h 20.9 km/h 87% 0.0 mm 28.00 W/m2
15:50 11.0 °C 8.9 °C 1002.3 hPa NNW 16.3 km/h 24.1 km/h 87% 0.0 mm 18.00 W/m2
15:55 10.9 °C 9.0 °C 1002.6 hPa NNE 11.1 km/h 20.9 km/h 88% 0.0 mm 16.00 W/m2
16:00 10.9 °C 9.0 °C 1002.6 hPa North 4.7 km/h 8.0 km/h 88% 0.0 mm 11.00 W/m2
16:05 10.8 °C 8.9 °C 1002.6 hPa NNW 4.7 km/h 16.1 km/h 88% 0.0 mm 12.00 W/m2
16:10 10.8 °C 8.7 °C 1002.6 hPa NNW 7.9 km/h 8.0 km/h 87% 0.0 mm 9.00 W/m2
16:15 10.7 °C 8.8 °C 1002.9 hPa North 7.9 km/h 11.3 km/h 88% 0.0 mm 9.00 W/m2
16:20 10.7 °C 8.8 °C 1002.6 hPa North 6.4 km/h 8.0 km/h 88% 0.0 mm 5.00 W/m2
16:25 10.8 °C 8.9 °C 1002.9 hPa Calm   14.5 km/h 88% 0.0 mm 0.00 W/m2
16:30 10.7 °C 8.8 °C 1002.9 hPa North 1.4 km/h 4.8 km/h 88% 0.0 mm 0.00 W/m2
16:35 10.7 °C 8.8 °C 1002.9 hPa NW 11.1 km/h 16.1 km/h 88% 0.0 mm 0.00 W/m2
16:40 10.6 °C 8.7 °C 1002.9 hPa North 7.9 km/h 17.7 km/h 88% 0.0 mm 0.00 W/m2
16:45 10.5 °C 8.6 °C 1003.3 hPa North 3.2 km/h 19.3 km/h 88% 0.0 mm 0.00 W/m2
16:50 10.4 °C 8.5 °C 1003.3 hPa North 9.7 km/h 16.1 km/h 88% 0.0 mm 0.00 W/m2
16:55 10.4 °C 8.5 °C 1003.3 hPa NW 6.4 km/h 12.9 km/h 88% 0.0 mm 0.00 W/m2
17:00 10.4 °C 8.5 °C 1003.3 hPa NW 11.1 km/h 19.3 km/h 88% 0.0 mm 0.00 W/m2
17:05 10.3 °C 8.4 °C 1003.6 hPa North 9.7 km/h 17.7 km/h 88% 0.0 mm 0.00 W/m2
17:10 10.3 °C 8.4 °C 1003.6 hPa NNW 7.9 km/h 20.9 km/h 88% 0.0 mm 0.00 W/m2
17:15 10.3 °C 8.4 °C 1003.9 hPa WNW 13.0 km/h 14.5 km/h 88% 0.0 mm 0.00 W/m2
17:20 10.2 °C 8.3 °C 1003.9 hPa NNW 9.7 km/h 20.9 km/h 88% 0.0 mm 0.00 W/m2
17:25 10.2 °C 8.3 °C 1003.9 hPa North 7.9 km/h 16.1 km/h 88% 0.0 mm 0.00 W/m2
17:30 10.2 °C 8.3 °C 1003.9 hPa NNW 13.0 km/h 14.5 km/h 88% 0.0 mm 0.00 W/m2
17:35 10.1 °C 8.2 °C 1003.9 hPa North 3.2 km/h 16.1 km/h 88% 0.0 mm 0.00 W/m2
17:40 10.1 °C 8.2 °C 1004.3 hPa NNW 4.7 km/h 17.7 km/h 88% 0.0 mm 0.00 W/m2
17:45 10.1 °C 8.2 °C 1004.3 hPa North 13.0 km/h 19.3 km/h 88% 0.0 mm 0.00 W/m2
17:50 10.0 °C 8.1 °C 1004.3 hPa WNW 16.3 km/h 22.5 km/h 88% 0.0 mm 0.00 W/m2
17:55 10.0 °C 8.1 °C 1004.3 hPa North 11.1 km/h 19.3 km/h 88% 0.0 mm 0.00 W/m2
18:00 9.9 °C 8.0 °C 1004.6 hPa NNE 13.0 km/h 24.1 km/h 88% 0.0 mm 0.00 W/m2
18:05 9.9 °C 8.0 °C 1004.6 hPa NNE 13.0 km/h 17.7 km/h 88% 0.0 mm 0.00 W/m2
18:10 9.9 °C 8.2 °C 1004.6 hPa North 7.9 km/h 20.9 km/h 89% 0.0 mm 0.00 W/m2
18:15 9.8 °C 7.9 °C 1004.6 hPa NNW 7.9 km/h 19.3 km/h 88% 0.0 mm 0.00 W/m2
18:20 9.8 °C 7.9 °C 1004.6 hPa NNE 6.4 km/h 17.7 km/h 88% 0.0 mm 0.00 W/m2
18:25 9.8 °C 7.9 °C 1004.6 hPa NW 9.7 km/h 14.5 km/h 88% 0.0 mm 0.00 W/m2
18:30 9.7 °C 7.8 °C 1004.6 hPa NW 4.7 km/h 8.0 km/h 88% 0.0 mm 0.00 W/m2
18:35 9.7 °C 7.8 °C 1004.6 hPa North 13.0 km/h 16.1 km/h 88% 0.0 mm 0.00 W/m2
18:40 9.7 °C 7.8 °C 1005.0 hPa North 3.2 km/h 12.9 km/h 88% 0.0 mm 0.00 W/m2
18:45 9.7 °C 7.8 °C 1005.0 hPa NNW 3.2 km/h 17.7 km/h 88% 0.0 mm 0.00 W/m2
18:50 9.7 °C 7.8 °C 1005.0 hPa North 6.4 km/h 16.1 km/h 88% 0.0 mm 0.00 W/m2
18:55 9.6 °C 7.7 °C 1005.0 hPa NNW 3.2 km/h 14.5 km/h 88% 0.0 mm 0.00 W/m2
19:00 9.6 °C 7.7 °C 1005.0 hPa NNE 13.0 km/h 22.5 km/h 88% 0.0 mm 0.00 W/m2
19:05 9.7 °C 7.8 °C 1005.0 hPa NW 16.3 km/h 19.3 km/h 88% 0.0 mm 0.00 W/m2
19:10 9.7 °C 7.8 °C 1005.0 hPa North 9.7 km/h 12.9 km/h 88% 0.0 mm 0.00 W/m2
19:15 9.7 °C 7.8 °C 1005.0 hPa NW 6.4 km/h 16.1 km/h 88% 0.0 mm 0.00 W/m2
19:20 9.7 °C 7.8 °C 1005.3 hPa NW 16.3 km/h 16.1 km/h 88% 0.0 mm 0.00 W/m2
19:25 9.6 °C 7.7 °C 1005.3 hPa NW 9.7 km/h 14.5 km/h 88% 0.0 mm 0.00 W/m2
19:30 9.7 °C 7.8 °C 1005.3 hPa North 9.7 km/h 12.9 km/h 88% 0.0 mm 0.00 W/m2
19:35 9.6 °C 7.7 °C 1005.3 hPa NNW 9.7 km/h 12.9 km/h 88% 0.0 mm 0.00 W/m2
19:40 9.6 °C 7.7 °C 1005.3 hPa North 13.0 km/h 12.9 km/h 88% 0.0 mm 0.00 W/m2
19:45 9.6 °C 7.7 °C 1005.3 hPa NW 9.7 km/h 16.1 km/h 88% 0.0 mm 0.00 W/m2
19:50 9.6 °C 7.7 °C 1005.6 hPa NNE 14.3 km/h 17.7 km/h 88% 0.0 mm 0.00 W/m2
19:55 9.6 °C 7.7 °C 1005.6 hPa North 7.9 km/h 22.5 km/h 88% 0.0 mm 0.00 W/m2
20:00 9.6 °C 7.5 °C 1005.6 hPa NNW 1.4 km/h 11.3 km/h 87% 0.0 mm 0.00 W/m2
20:05 9.6 °C 7.5 °C 1005.6 hPa NNW 7.9 km/h 11.3 km/h 87% 0.0 mm 0.00 W/m2
20:10 9.6 °C 7.5 °C 1005.6 hPa North 4.7 km/h 14.5 km/h 87% 0.0 mm 0.00 W/m2
20:15 9.6 °C 7.5 °C 1005.6 hPa NNW 13.0 km/h 16.1 km/h 87% 0.0 mm 0.00 W/m2
20:20 9.6 °C 7.5 °C 1005.6 hPa NNW 1.4 km/h 8.0 km/h 87% 0.0 mm 0.00 W/m2
20:25 9.5 °C 7.4 °C 1005.6 hPa NNW 4.7 km/h 14.5 km/h 87% 0.0 mm 0.00 W/m2
20:30 9.6 °C 7.5 °C 1005.6 hPa North 3.2 km/h 6.4 km/h 87% 0.0 mm 0.00 W/m2
20:35 9.5 °C 7.4 °C 1005.6 hPa North 7.9 km/h 14.5 km/h 87% 0.0 mm 0.00 W/m2
20:40 9.5 °C 7.4 °C 1005.6 hPa NNW 6.4 km/h 9.7 km/h 87% 0.0 mm 0.00 W/m2
20:45 9.5 °C 7.4 °C 1006.0 hPa NNW 9.7 km/h 12.9 km/h 87% 0.0 mm 0.00 W/m2
20:50 9.5 °C 7.4 °C 1006.0 hPa North 3.2 km/h 11.3 km/h 87% 0.0 mm 0.00 W/m2
20:55 9.5 °C 7.4 °C 1006.0 hPa North 4.7 km/h 14.5 km/h 87% 0.0 mm 0.00 W/m2
21:00 9.5 °C 7.4 °C 1006.0 hPa NNW 3.2 km/h 4.8 km/h 87% 0.0 mm 0.00 W/m2
21:05 9.4 °C 7.3 °C 1006.3 hPa NNW 4.7 km/h 11.3 km/h 87% 0.0 mm 0.00 W/m2
21:10 9.4 °C 7.3 °C 1006.0 hPa NNW 4.7 km/h 9.7 km/h 87% 0.0 mm 0.00 W/m2
21:15 9.4 °C 7.3 °C 1006.3 hPa NNE 6.4 km/h 16.1 km/h 87% 0.0 mm 0.00 W/m2
21:20 9.4 °C 7.3 °C 1006.3 hPa North 6.4 km/h 11.3 km/h 87% 0.0 mm 0.00 W/m2
21:25 9.4 °C 7.3 °C 1006.3 hPa Calm   3.2 km/h 87% 0.0 mm 0.00 W/m2
21:30 9.4 °C 7.3 °C 1006.3 hPa North 3.2 km/h 8.0 km/h 87% 0.0 mm 0.00 W/m2
21:35 9.3 °C 7.2 °C 1006.3 hPa NNW 1.4 km/h 8.0 km/h 87% 0.0 mm 0.00 W/m2
21:40 9.4 °C 7.3 °C 1006.3 hPa NNW 3.2 km/h 6.4 km/h 87% 0.0 mm 0.00 W/m2
21:45 9.3 °C 7.2 °C 1006.3 hPa North 6.4 km/h 9.7 km/h 87% 0.0 mm 0.00 W/m2
21:50 9.3 °C 7.2 °C 1006.3 hPa North 1.4 km/h 1.6 km/h 87% 0.0 mm 0.00 W/m2
21:55 9.3 °C 7.2 °C 1006.3 hPa Calm   6.4 km/h 87% 0.0 mm 0.00 W/m2
22:00 9.3 °C 7.2 °C 1006.3 hPa North 3.2 km/h 3.2 km/h 87% 0.0 mm 0.00 W/m2
22:05 9.2 °C 7.1 °C 1006.3 hPa Calm   3.2 km/h 87% 0.0 mm 0.00 W/m2
22:10 9.2 °C 7.1 °C 1006.3 hPa Calm   1.6 km/h 87% 0.0 mm 0.00 W/m2
22:15 9.2 °C 7.1 °C 1006.3 hPa North 1.4 km/h 3.2 km/h 87% 0.0 mm 0.00 W/m2
22:20 9.2 °C 7.1 °C 1006.3 hPa North 1.4 km/h 1.6 km/h 87% 0.0 mm 0.00 W/m2
22:25 9.1 °C 7.1 °C 1006.7 hPa Calm   3.2 km/h 87% 0.0 mm 0.00 W/m2
22:30 9.1 °C 7.1 °C 1006.7 hPa North 1.4 km/h 1.6 km/h 87% 0.0 mm 0.00 W/m2
22:35 9.1 °C 7.1 °C 1006.7 hPa North 4.7 km/h 6.4 km/h 87% 0.0 mm 0.00 W/m2
22:40 9.1 °C 7.1 °C 1006.7 hPa Calm     87% 0.0 mm 0.00 W/m2
22:45 9.1 °C 7.1 °C 1006.7 hPa North 1.4 km/h 4.8 km/h 87% 0.0 mm 0.00 W/m2
22:50 9.1 °C 7.1 °C 1006.7 hPa North 4.7 km/h 9.7 km/h 87% 0.0 mm 0.00 W/m2
22:55 9.0 °C 7.0 °C 1006.7 hPa NNW 4.7 km/h 11.3 km/h 87% 0.0 mm 0.00 W/m2
23:00 9.1 °C 7.1 °C 1006.7 hPa Calm   6.4 km/h 87% 0.0 mm 0.00 W/m2
23:05 9.0 °C 7.1 °C 1006.7 hPa NNW 7.9 km/h 8.0 km/h 88% 0.0 mm 0.00 W/m2
23:10 9.0 °C 7.1 °C 1006.7 hPa NNW 6.4 km/h 8.0 km/h 88% 0.0 mm 0.00 W/m2
23:15 8.9 °C 7.0 °C 1006.7 hPa North 1.4 km/h 12.9 km/h 88% 0.0 mm 0.00 W/m2
23:20 8.9 °C 7.0 °C 1006.7 hPa Calm   6.4 km/h 88% 0.0 mm 0.00 W/m2
23:25 8.9 °C 7.0 °C 1006.7 hPa North 6.4 km/h 8.0 km/h 88% 0.0 mm 0.00 W/m2
23:30 8.9 °C 7.0 °C 1006.7 hPa Calm   4.8 km/h 88% 0.0 mm 0.00 W/m2
23:35 8.8 °C 6.9 °C 1006.7 hPa North 3.2 km/h 9.7 km/h 88% 0.0 mm 0.00 W/m2
23:40 8.8 °C 6.9 °C 1007.0 hPa NNW 1.4 km/h 6.4 km/h 88% 0.0 mm 0.00 W/m2
23:45 8.8 °C 6.9 °C 1007.0 hPa NNW 6.4 km/h 9.7 km/h 88% 0.0 mm 0.00 W/m2
23:50 8.8 °C 6.9 °C 1007.0 hPa North 13.0 km/h 14.5 km/h 88% 0.0 mm 0.00 W/m2
23:55 8.8 °C 6.8 °C 1006.7 hPa North 9.7 km/h 12.9 km/h 87% 0.0 mm 0.00 W/m2